TimeEDT,TemperatureF,Dew PointF,Humidity,Sea Level PressureIn,VisibilityMPH,Wind Direction,Wind SpeedMPH,Gust SpeedMPH,PrecipitationIn,Events,Conditions,WindDirDegrees,DateUTC
12:53 AM,69.1,64.0,84,30.11,10.0,West,6.9,-,N/A,,Clear,270,2013-08-21 04:53:00
1:53 AM,68.0,64.9,90,30.11,10.0,West,5.8,-,N/A,,Clear,280,2013-08-21 05:53:00
2:53 AM,68.0,64.0,87,30.11,10.0,West,5.8,-,N/A,,Unknown,280,2013-08-21 06:53:00
3:53 AM,66.0,63.0,90,30.12,9.0,WNW,4.6,-,N/A,,Clear,290,2013-08-21 07:53:00
4:53 AM,64.0,62.1,93,30.12,8.0,WNW,3.5,-,N/A,,Clear,300,2013-08-21 08:53:00
5:53 AM,61.0,60.1,97,30.13,8.0,WNW,3.5,-,N/A,,Clear,290,2013-08-21 09:53:00
6:53 AM,63.0,61.0,93,30.14,7.0,Calm,Calm,-,N/A,,Clear,0,2013-08-21 10:53:00
7:53 AM,72.0,64.9,78,30.16,10.0,Calm,Calm,-,N/A,,Clear,0,2013-08-21 11:53:00
8:53 AM,77.0,64.0,64,30.15,10.0,West,3.5,-,N/A,,Clear,270,2013-08-21 12:53:00
9:53 AM,80.1,63.0,56,30.15,10.0,NW,5.8,-,N/A,,Clear,310,2013-08-21 13:53:00
10:53 AM,82.0,63.0,52,30.15,10.0,Variable,4.6,-,N/A,,Clear,0,2013-08-21 14:53:00
11:53 AM,82.0,69.1,65,30.15,10.0,South,9.2,-,N/A,,Clear,190,2013-08-21 15:53:00
12:53 PM,81.0,68.0,65,30.14,10.0,SW,10.4,-,N/A,,Clear,220,2013-08-21 16:53:00
1:53 PM,81.0,66.9,62,30.13,10.0,SSW,11.5,-,N/A,,Clear,210,2013-08-21 17:53:00
2:53 PM,81.0,66.0,60,30.11,10.0,SSW,12.7,-,N/A,,Clear,210,2013-08-21 18:53:00
3:53 PM,79.0,68.0,69,30.11,10.0,SW,13.8,-,N/A,,Clear,230,2013-08-21 19:53:00
4:53 PM,78.1,69.1,74,30.09,10.0,SW,8.1,-,N/A,,Clear,220,2013-08-21 20:53:00
5:53 PM,75.0,69.1,82,30.08,10.0,SW,9.2,-,N/A,,Clear,220,2013-08-21 21:53:00
6:53 PM,72.0,69.1,91,30.07,6.0,SSW,6.9,-,N/A,,Clear,210,2013-08-21 22:53:00
7:05 PM,69.8,68.0,94,30.08,3.0,SW,8.1,-,N/A,,Mostly Cloudy,220,2013-08-21 23:05:00
7:22 PM,69.8,68.0,94,30.08,5.0,SW,5.8,-,N/A,,Scattered Clouds,220,2013-08-21 23:22:00
7:53 PM,69.1,66.9,93,30.08,7.0,SW,5.8,-,N/A,,Clear,230,2013-08-21 23:53:00
8:53 PM,69.1,66.9,93,30.09,8.0,SW,5.8,-,N/A,,Clear,230,2013-08-22 00:53:00
9:53 PM,68.0,64.9,90,30.08,8.0,SW,3.5,-,N/A,,Clear,220,2013-08-22 01:53:00
10:53 PM,69.1,66.0,90,30.08,9.0,SW,4.6,-,N/A,,Clear,230,2013-08-22 02:53:00
11:53 PM,70.0,66.9,90,30.07,8.0,WSW,4.6,-,N/A,,Clear,240,2013-08-22 03:53:00